DLH8CT EGBB-EDDF

Flight info

Callsign DLH8CT
Flight time 1h 16m
Altitude 37000
Route DTY2Y DTY P166 BANTO P155 SIVDA P137 REDFA L620 TACHA DCT NOLRU DCT DIXAT DIXAT1A
Aircraft A320/M-SDE3FGHIRWY/LB1

Departure

Time 2026-05-07 11:04
Airport Birmingham Airport (EGBB)

Arrival

Time 2026-05-07 12:20
Airport Frankfurt Main Airport (EDDF)
Time Latitude Longitude Altitude Speed Heading
2026-05-07 10:43 52.45318 -1.73722 332 ft 0 kts 146°
2026-05-07 10:56 52.45333 -1.73738 327 ft 4 kts 146°
2026-05-07 10:56 52.45356 -1.73763 327 ft 4 kts 149°
2026-05-07 10:57 52.45379 -1.73782 327 ft 4 kts 172°
2026-05-07 10:57 52.45396 -1.73777 330 ft 1 kts 236°
2026-05-07 10:57 52.45399 -1.73771 327 ft 0 kts 236°
2026-05-07 10:59 52.45389 -1.73796 328 ft 8 kts 237°
2026-05-07 11:00 52.45358 -1.73870 329 ft 7 kts 236°
2026-05-07 11:00 52.45316 -1.73968 329 ft 15 kts 235°
2026-05-07 11:00 52.45344 -1.74151 330 ft 21 kts 296°
2026-05-07 11:00 52.45415 -1.74380 330 ft 24 kts 298°
2026-05-07 11:01 52.45513 -1.74617 329 ft 27 kts 330°
2026-05-07 11:01 52.45667 -1.74790 328 ft 27 kts 326°
2026-05-07 11:01 52.45826 -1.74968 326 ft 29 kts 327°
2026-05-07 11:01 52.45983 -1.75142 323 ft 25 kts 325°
2026-05-07 11:02 52.46115 -1.75289 317 ft 22 kts 327°
2026-05-07 11:02 52.46216 -1.75415 313 ft 13 kts 298°
2026-05-07 11:02 52.46188 -1.75531 314 ft 10 kts 236°
2026-05-07 11:02 52.46152 -1.75612 316 ft 7 kts 232°
2026-05-07 11:03 52.46115 -1.75619 317 ft 8 kts 152°
2026-05-07 11:03 52.46063 -1.75560 318 ft 10 kts 145°
2026-05-07 11:03 52.45882 -1.75359 324 ft 66 kts 146°
2026-05-07 11:03 52.45320 -1.74735 323 ft 126 kts 146°
2026-05-07 11:04 52.44504 -1.73829 702 ft 137 kts 144°
2026-05-07 11:04 52.43728 -1.72981 1468 ft 137 kts 145°
2026-05-07 11:04 52.42902 -1.72056 1998 ft 151 kts 145°
2026-05-07 11:04 52.41994 -1.71037 2494 ft 165 kts 146°
2026-05-07 11:05 52.40978 -1.70055 3086 ft 175 kts 158°
2026-05-07 11:05 52.39777 -1.69506 3692 ft 185 kts 165°
2026-05-07 11:05 52.38494 -1.68997 4094 ft 202 kts 163°
2026-05-07 11:05 52.37153 -1.68069 4568 ft 215 kts 153°
2026-05-07 11:06 52.35888 -1.66723 5238 ft 220 kts 133°
2026-05-07 11:06 52.35063 -1.64575 5841 ft 234 kts 107°
2026-05-07 11:06 52.34688 -1.61812 5990 ft 262 kts 100°
2026-05-07 11:06 52.34349 -1.58844 6005 ft 267 kts 101°
2026-05-07 11:07 52.33690 -1.55971 6027 ft 272 kts 115°
2026-05-07 11:07 52.32853 -1.53220 6016 ft 269 kts 116°
2026-05-07 11:07 52.32007 -1.50529 6098 ft 271 kts 117°
2026-05-07 11:07 52.31123 -1.47782 6905 ft 273 kts 118°
2026-05-07 11:08 52.30188 -1.45088 7907 ft 273 kts 120°
2026-05-07 11:08 52.29217 -1.42396 8800 ft 277 kts 121°
2026-05-07 11:08 52.28249 -1.39642 9676 ft 283 kts 116°
2026-05-07 11:08 52.27794 -1.36490 10412 ft 294 kts 94°
2026-05-07 11:09 52.27906 -1.33005 10684 ft 320 kts 85°
2026-05-07 11:09 52.28130 -1.29258 10918 ft 343 kts 85°
2026-05-07 11:09 52.28393 -1.25357 11400 ft 355 kts 85°
2026-05-07 11:09 52.28670 -1.21318 12102 ft 361 kts 84°
2026-05-07 11:10 52.28941 -1.17224 12848 ft 365 kts 84°
2026-05-07 11:10 52.29205 -1.13082 13568 ft 369 kts 84°
2026-05-07 11:10 52.29463 -1.08894 14247 ft 373 kts 85°
2026-05-07 11:10 52.29715 -1.04655 14885 ft 377 kts 85°
2026-05-07 11:11 52.29967 -1.00363 15510 ft 381 kts 86°
2026-05-07 11:11 52.30220 -0.96030 16156 ft 385 kts 85°
2026-05-07 11:11 52.30474 -0.91653 16793 ft 389 kts 85°
2026-05-07 11:11 52.30726 -0.87295 17410 ft 393 kts 85°
2026-05-07 11:12 52.30984 -0.82832 18051 ft 396 kts 85°
2026-05-07 11:12 52.31243 -0.78327 18636 ft 400 kts 85°
2026-05-07 11:12 52.31501 -0.73788 19207 ft 403 kts 85°
2026-05-07 11:12 52.31759 -0.69216 19789 ft 405 kts 85°
2026-05-07 11:13 52.32018 -0.64616 20372 ft 408 kts 85°
2026-05-07 11:13 52.32278 -0.59988 20933 ft 410 kts 85°
2026-05-07 11:13 52.32536 -0.55338 21482 ft 412 kts 86°
2026-05-07 11:13 52.32793 -0.50656 22024 ft 414 kts 86°
2026-05-07 11:14 52.33045 -0.46021 22541 ft 416 kts 86°
2026-05-07 11:14 52.33302 -0.41292 23054 ft 419 kts 85°
2026-05-07 11:14 52.33560 -0.36540 23562 ft 421 kts 86°
2026-05-07 11:14 52.33815 -0.31766 23979 ft 423 kts 86°
2026-05-07 11:15 52.34012 -0.26961 24388 ft 424 kts 90°
2026-05-07 11:15 52.34024 -0.22128 24778 ft 425 kts 91°
2026-05-07 11:15 52.33990 -0.17289 25174 ft 427 kts 91°
2026-05-07 11:15 52.33929 -0.12424 25557 ft 428 kts 92°
2026-05-07 11:16 52.33857 -0.07619 25930 ft 430 kts 92°
2026-05-07 11:16 52.33784 -0.02723 26296 ft 432 kts 92°
2026-05-07 11:16 52.33716 0.02194 26659 ft 433 kts 91°
2026-05-07 11:16 52.33655 0.07113 27011 ft 435 kts 91°
2026-05-07 11:17 52.33598 0.12072 27353 ft 436 kts 91°
2026-05-07 11:17 52.33540 0.17034 27687 ft 438 kts 91°
2026-05-07 11:17 52.33480 0.22018 28018 ft 439 kts 91°
2026-05-07 11:17 52.33416 0.26947 28340 ft 440 kts 91°
2026-05-07 11:18 52.33347 0.31962 28639 ft 442 kts 91°
2026-05-07 11:18 52.33273 0.36991 28927 ft 443 kts 91°
2026-05-07 11:18 52.33195 0.42031 29200 ft 444 kts 91°
2026-05-07 11:18 52.33115 0.47085 29456 ft 445 kts 91°
2026-05-07 11:19 52.33035 0.52144 29798 ft 444 kts 91°
2026-05-07 11:19 52.32954 0.57186 30190 ft 443 kts 91°
2026-05-07 11:19 52.32872 0.62214 30521 ft 442 kts 91°
2026-05-07 11:19 52.32788 0.67158 30832 ft 441 kts 91°
2026-05-07 11:20 52.32699 0.72165 31134 ft 440 kts 91°
2026-05-07 11:20 52.32609 0.77160 31428 ft 439 kts 91°
2026-05-07 11:20 52.32522 0.82144 31723 ft 438 kts 91°
2026-05-07 11:20 52.32434 0.87125 32020 ft 438 kts 91°
2026-05-07 11:21 52.32342 0.92091 32319 ft 437 kts 91°
2026-05-07 11:21 52.32247 0.97052 32624 ft 436 kts 91°
2026-05-07 11:21 52.32146 1.02002 32912 ft 436 kts 91°
2026-05-07 11:21 52.32046 1.06890 33185 ft 436 kts 91°
2026-05-07 11:22 52.31946 1.11834 33478 ft 435 kts 91°
2026-05-07 11:22 52.31843 1.16779 33783 ft 435 kts 91°
2026-05-07 11:22 52.31736 1.21710 34086 ft 434 kts 91°
2026-05-07 11:22 52.31627 1.26638 34332 ft 434 kts 92°
2026-05-07 11:23 52.31517 1.31573 34542 ft 435 kts 92°
2026-05-07 11:23 52.31406 1.36515 34754 ft 436 kts 92°
2026-05-07 11:23 52.31293 1.41467 34953 ft 437 kts 92°
2026-05-07 11:23 52.31179 1.46363 35143 ft 438 kts 92°
2026-05-07 11:24 52.31061 1.51336 35333 ft 439 kts 92°
2026-05-07 11:24 52.30939 1.56331 35496 ft 440 kts 92°
2026-05-07 11:24 52.30814 1.61334 35704 ft 441 kts 92°
2026-05-07 11:24 52.30690 1.66339 35890 ft 441 kts 92°
2026-05-07 11:25 52.30563 1.71354 36062 ft 442 kts 92°
2026-05-07 11:25 52.30432 1.76375 36256 ft 442 kts 92°
2026-05-07 11:25 52.30298 1.81402 36407 ft 444 kts 92°
2026-05-07 11:25 52.30159 1.86445 36564 ft 445 kts 93°
2026-05-07 11:26 52.30019 1.91497 36720 ft 445 kts 93°
2026-05-07 11:26 52.29878 1.96490 36860 ft 447 kts 93°
2026-05-07 11:26 52.29734 2.01561 37032 ft 447 kts 93°
2026-05-07 11:26 52.29587 2.06651 37108 ft 450 kts 93°
2026-05-07 11:27 52.29282 2.16891 37112 ft 452 kts 93°
2026-05-07 11:27 52.28975 2.27146 37111 ft 452 kts 93°
2026-05-07 11:28 52.28662 2.37407 37111 ft 452 kts 93°
2026-05-07 11:28 52.28336 2.47599 37109 ft 452 kts 93°
2026-05-07 11:29 52.28000 2.57865 37105 ft 453 kts 93°
2026-05-07 11:29 52.27654 2.68145 37107 ft 454 kts 93°
2026-05-07 11:30 52.27302 2.78425 37110 ft 454 kts 94°
2026-05-07 11:30 52.26941 2.88645 37114 ft 454 kts 94°
2026-05-07 11:31 52.26562 2.98938 37114 ft 454 kts 94°
2026-05-07 11:31 52.26172 3.09240 37107 ft 455 kts 94°
2026-05-07 11:32 52.25280 3.24661 37100 ft 455 kts 104°
2026-05-07 11:33 52.23179 3.34298 37098 ft 454 kts 112°
2026-05-07 11:33 52.20874 3.43903 37093 ft 455 kts 112°
2026-05-07 11:34 52.18576 3.53527 37096 ft 456 kts 112°
2026-05-07 11:34 52.16259 3.63152 37099 ft 456 kts 112°
2026-05-07 11:35 52.13944 3.72703 37101 ft 457 kts 112°
2026-05-07 11:35 52.11607 3.82320 37100 ft 457 kts 112°
2026-05-07 11:36 52.09259 3.91933 37101 ft 457 kts 112°
2026-05-07 11:36 52.06908 4.01544 37097 ft 458 kts 112°
2026-05-07 11:37 52.04943 4.09533 37092 ft 458 kts 113°
2026-05-07 11:37 52.02176 4.20681 37092 ft 458 kts 113°
2026-05-07 11:38 51.99793 4.30284 37089 ft 458 kts 113°
2026-05-07 11:38 51.97399 4.39872 37096 ft 459 kts 113°
2026-05-07 11:39 51.94997 4.49449 37091 ft 459 kts 113°
2026-05-07 11:39 51.92606 4.58962 37088 ft 459 kts 113°
2026-05-07 11:40 51.90184 4.68526 37088 ft 459 kts 113°
2026-05-07 11:40 51.87757 4.78085 37082 ft 459 kts 113°
2026-05-07 11:41 51.85319 4.87634 37076 ft 459 kts 114°
2026-05-07 11:41 51.82893 4.97109 37085 ft 459 kts 114°
2026-05-07 11:42 51.80440 5.06639 37085 ft 459 kts 114°
2026-05-07 11:42 51.77977 5.16159 37085 ft 459 kts 114°
2026-05-07 11:43 51.75513 5.25673 37077 ft 459 kts 114°
2026-05-07 11:43 51.73056 5.35115 37076 ft 459 kts 114°
2026-05-07 11:44 51.70579 5.44617 37072 ft 460 kts 114°
2026-05-07 11:44 51.68088 5.54108 37075 ft 460 kts 114°
2026-05-07 11:45 51.65586 5.63590 37059 ft 460 kts 114°
2026-05-07 11:45 51.63074 5.73059 37062 ft 460 kts 114°
2026-05-07 11:46 51.60569 5.82460 37061 ft 460 kts 114°
2026-05-07 11:46 51.58048 5.91918 37061 ft 460 kts 114°
2026-05-07 11:47 51.55520 6.01369 37065 ft 460 kts 114°
2026-05-07 11:47 51.52986 6.10813 37067 ft 460 kts 114°
2026-05-07 11:48 51.50447 6.20178 37068 ft 460 kts 114°
2026-05-07 11:48 51.47993 6.29671 37063 ft 461 kts 112°
2026-05-07 11:49 51.45696 6.39268 37060 ft 461 kts 112°
2026-05-07 11:49 51.43392 6.48863 37062 ft 461 kts 112°
2026-05-07 11:50 51.41052 6.58352 37063 ft 461 kts 112°
2026-05-07 11:50 51.38668 6.67901 37064 ft 461 kts 113°
2026-05-07 11:51 51.36276 6.77431 37056 ft 462 kts 112°
2026-05-07 11:51 51.33888 6.86965 37056 ft 462 kts 112°
2026-05-07 11:51 51.32691 6.91736 36689 ft 463 kts 112°
2026-05-07 11:52 51.31509 6.96438 36109 ft 461 kts 112°
2026-05-07 11:52 51.30309 7.01185 35465 ft 460 kts 112°
2026-05-07 11:52 51.29073 7.05901 34643 ft 462 kts 116°
2026-05-07 11:52 51.27449 7.10332 33745 ft 463 kts 126°
2026-05-07 11:53 51.25386 7.14275 32763 ft 463 kts 135°
2026-05-07 11:53 51.22947 7.17628 31805 ft 463 kts 144°
2026-05-07 11:53 51.20205 7.20288 30879 ft 461 kts 154°
2026-05-07 11:53 51.17336 7.22553 29956 ft 460 kts 154°
2026-05-07 11:54 51.14472 7.24813 28919 ft 459 kts 154°
2026-05-07 11:54 51.11644 7.27042 27933 ft 460 kts 154°
2026-05-07 11:54 51.08784 7.29332 26962 ft 460 kts 153°
2026-05-07 11:54 51.05949 7.31653 26037 ft 457 kts 153°
2026-05-07 11:55 51.03144 7.33986 25168 ft 453 kts 153°
2026-05-07 11:55 51.00382 7.36299 24577 ft 446 kts 153°
2026-05-07 11:55 50.97646 7.38578 23925 ft 442 kts 153°
2026-05-07 11:55 50.94930 7.40823 23196 ft 439 kts 154°
2026-05-07 11:56 50.92231 7.43042 22435 ft 435 kts 154°
2026-05-07 11:56 50.89558 7.45226 21813 ft 430 kts 153°
2026-05-07 11:56 50.86947 7.47352 21210 ft 426 kts 154°
2026-05-07 11:56 50.84321 7.49488 20618 ft 423 kts 154°
2026-05-07 11:57 50.81718 7.51623 20031 ft 420 kts 153°
2026-05-07 11:57 50.79174 7.53869 19513 ft 418 kts 150°
2026-05-07 11:57 50.76679 7.56221 19049 ft 417 kts 149°
2026-05-07 11:57 50.74218 7.58621 18592 ft 414 kts 148°
2026-05-07 11:58 50.71782 7.61021 18113 ft 411 kts 148°
2026-05-07 11:58 50.69362 7.63391 17596 ft 408 kts 148°
2026-05-07 11:58 50.66983 7.65693 17099 ft 405 kts 149°
2026-05-07 11:58 50.64571 7.67987 16592 ft 405 kts 149°
2026-05-07 11:59 50.62157 7.70260 16104 ft 404 kts 150°
2026-05-07 11:59 50.59747 7.72518 15619 ft 402 kts 150°
2026-05-07 11:59 50.57344 7.74764 15142 ft 401 kts 150°
2026-05-07 11:59 50.54962 7.76995 14673 ft 396 kts 150°
2026-05-07 12:00 50.52619 7.79197 14271 ft 388 kts 150°
2026-05-07 12:00 50.50325 7.81352 13907 ft 380 kts 150°
2026-05-07 12:00 50.48108 7.83433 13517 ft 373 kts 150°
2026-05-07 12:00 50.45903 7.85502 13115 ft 365 kts 150°
2026-05-07 12:01 50.43741 7.87531 12720 ft 359 kts 150°
2026-05-07 12:01 50.41617 7.89523 12332 ft 353 kts 149°
2026-05-07 12:01 50.39531 7.91476 11945 ft 347 kts 149°
2026-05-07 12:01 50.37477 7.93394 11560 ft 341 kts 150°
2026-05-07 12:02 50.35452 7.95280 11174 ft 336 kts 150°
2026-05-07 12:02 50.33450 7.97142 10808 ft 333 kts 150°
2026-05-07 12:02 50.31496 7.98957 10446 ft 329 kts 150°
2026-05-07 12:02 50.29541 8.00772 10112 ft 324 kts 150°
2026-05-07 12:03 50.27643 8.02540 10034 ft 311 kts 148°
2026-05-07 12:03 50.25968 8.04646 10047 ft 309 kts 134°
2026-05-07 12:03 50.24619 8.07261 10051 ft 309 kts 127°
2026-05-07 12:03 50.23314 8.09934 10048 ft 311 kts 127°
2026-05-07 12:04 50.22003 8.12610 10047 ft 310 kts 128°
2026-05-07 12:04 50.20705 8.15252 10048 ft 312 kts 128°
2026-05-07 12:04 50.19378 8.17938 10048 ft 311 kts 128°
2026-05-07 12:04 50.18057 8.20600 10044 ft 310 kts 128°
2026-05-07 12:05 50.16734 8.23264 10046 ft 310 kts 128°
2026-05-07 12:05 50.15419 8.25911 9991 ft 310 kts 128°
2026-05-07 12:05 50.14108 8.28553 9700 ft 305 kts 127°
2026-05-07 12:05 50.12824 8.31144 9404 ft 298 kts 127°
2026-05-07 12:06 50.11990 8.32833 9210 ft 296 kts 126°
2026-05-07 12:06 50.10802 8.36590 8831 ft 292 kts 103°
2026-05-07 12:06 50.10582 8.39696 8567 ft 288 kts 85°
2026-05-07 12:06 50.10946 8.42737 8332 ft 285 kts 68°
2026-05-07 12:07 50.11648 8.45615 8116 ft 283 kts 67°
2026-05-07 12:07 50.12340 8.48479 7884 ft 279 kts 68°
2026-05-07 12:07 50.12783 8.50336 7729 ft 274 kts 68°
2026-05-07 12:07 50.13434 8.53078 7500 ft 266 kts 68°
2026-05-07 12:08 50.14065 8.55744 7271 ft 259 kts 68°
2026-05-07 12:08 50.14686 8.58366 7109 ft 257 kts 67°
2026-05-07 12:08 50.15305 8.60972 7047 ft 256 kts 67°
2026-05-07 12:08 50.15923 8.63583 7056 ft 257 kts 67°
2026-05-07 12:09 50.16742 8.67042 7049 ft 256 kts 68°
2026-05-07 12:09 50.17161 8.68808 7050 ft 258 kts 68°
2026-05-07 12:09 50.17782 8.71432 7046 ft 257 kts 67°
2026-05-07 12:09 50.18395 8.74010 7048 ft 257 kts 67°
2026-05-07 12:10 50.19016 8.76624 7047 ft 257 kts 67°
2026-05-07 12:10 50.19635 8.79235 7043 ft 257 kts 67°
2026-05-07 12:10 50.20252 8.81850 7046 ft 257 kts 68°
2026-05-07 12:10 50.20865 8.84467 7037 ft 256 kts 68°
2026-05-07 12:11 50.21478 8.87083 7025 ft 257 kts 68°
2026-05-07 12:11 50.22094 8.89707 6797 ft 256 kts 68°
2026-05-07 12:11 50.22703 8.92310 6529 ft 255 kts 68°
2026-05-07 12:11 50.23305 8.94890 6242 ft 250 kts 67°
2026-05-07 12:12 50.23695 8.97502 5958 ft 247 kts 88°
2026-05-07 12:12 50.23372 9.00106 5669 ft 245 kts 114°
2026-05-07 12:12 50.22385 9.02200 5385 ft 244 kts 141°
2026-05-07 12:12 50.20905 9.03428 5110 ft 241 kts 167°
2026-05-07 12:13 50.19257 9.03543 5003 ft 238 kts 193°
2026-05-07 12:13 50.17739 9.02582 5010 ft 237 kts 218°
2026-05-07 12:13 50.16623 9.00748 5016 ft 233 kts 240°
2026-05-07 12:13 50.15735 8.98623 5012 ft 234 kts 239°
2026-05-07 12:14 50.14875 8.96468 5009 ft 234 kts 246°
2026-05-07 12:14 50.14229 8.94168 5011 ft 228 kts 251°
2026-05-07 12:14 50.13697 8.91917 5013 ft 214 kts 252°
2026-05-07 12:14 50.13194 8.89756 5018 ft 211 kts 252°
2026-05-07 12:15 50.12699 8.87643 5016 ft 201 kts 252°
2026-05-07 12:15 50.12239 8.85690 4966 ft 190 kts 252°
2026-05-07 12:15 50.11792 8.83785 4800 ft 184 kts 252°
2026-05-07 12:15 50.11353 8.81923 4520 ft 182 kts 252°
2026-05-07 12:16 50.10919 8.80079 4255 ft 181 kts 253°
2026-05-07 12:16 50.10484 8.78233 3987 ft 183 kts 253°
2026-05-07 12:16 50.10040 8.76351 3719 ft 186 kts 253°
2026-05-07 12:16 50.09589 8.74446 3457 ft 189 kts 253°
2026-05-07 12:17 50.09133 8.72520 3179 ft 190 kts 252°
2026-05-07 12:17 50.08682 8.70616 2900 ft 183 kts 252°
2026-05-07 12:17 50.08252 8.68805 2637 ft 173 kts 252°
2026-05-07 12:17 50.07850 8.67114 2396 ft 160 kts 252°
2026-05-07 12:18 50.07483 8.65565 2204 ft 149 kts 253°
2026-05-07 12:18 50.07129 8.64076 1956 ft 143 kts 252°
2026-05-07 12:18 50.06791 8.62651 1762 ft 138 kts 253°
2026-05-07 12:18 50.06461 8.61263 1555 ft 136 kts 253°
2026-05-07 12:19 50.06134 8.59887 1358 ft 135 kts 252°
2026-05-07 12:19 50.05808 8.58518 1159 ft 134 kts 251°
2026-05-07 12:19 50.05483 8.57156 960 ft 133 kts 250°
2026-05-07 12:19 50.05162 8.55806 764 ft 133 kts 250°
2026-05-07 12:20 50.04841 8.54460 577 ft 132 kts 250°
2026-05-07 12:20 50.04530 8.53158 391 ft 129 kts 250°
2026-05-07 12:20 50.04242 8.51958 337 ft 99 kts 249°
2026-05-07 12:20 50.04068 8.51211 330 ft 42 kts 249°
2026-05-07 12:21 50.03970 8.50814 326 ft 38 kts 250°
2026-05-07 12:21 50.03882 8.50473 322 ft 31 kts 241°
2026-05-07 12:21 50.03754 8.50267 319 ft 23 kts 219°
2026-05-07 12:21 50.03631 8.50178 322 ft 13 kts 153°
2026-05-07 12:22 50.03623 8.50263 323 ft 15 kts 76°
2026-05-07 12:22 50.03679 8.50499 327 ft 25 kts 69°
2026-05-07 12:22 50.03741 8.50755 328 ft 26 kts 69°
2026-05-07 12:22 50.03803 8.51015 333 ft 27 kts 69°
2026-05-07 12:23 50.03870 8.51293 331 ft 28 kts 70°
2026-05-07 12:23 50.03941 8.51590 333 ft 30 kts 70°
2026-05-07 12:23 50.04014 8.51896 334 ft 30 kts 69°
2026-05-07 12:23 50.04086 8.52199 349 ft 30 kts 70°
2026-05-07 12:24 50.04159 8.52505 356 ft 30 kts 69°
2026-05-07 12:24 50.04234 8.52813 355 ft 31 kts 69°
2026-05-07 12:24 50.04303 8.53101 360 ft 29 kts 69°
2026-05-07 12:24 50.04374 8.53399 373 ft 29 kts 69°
2026-05-07 12:25 50.04407 8.53704 375 ft 29 kts 84°
2026-05-07 12:25 50.04427 8.53988 375 ft 27 kts 84°
2026-05-07 12:25 50.04447 8.54283 375 ft 27 kts 84°
2026-05-07 12:25 50.04437 8.54567 367 ft 29 kts 112°
2026-05-07 12:26 50.04313 8.54772 358 ft 25 kts 158°
2026-05-07 12:26 50.04174 8.54850 356 ft 22 kts 159°
2026-05-07 12:26 50.04050 8.54922 353 ft 14 kts 160°
2026-05-07 12:26 50.04022 8.55031 353 ft 12 kts 72°
2026-05-07 12:27 50.04068 8.55227 359 ft 24 kts 70°
2026-05-07 12:27 50.04130 8.55484 355 ft 27 kts 69°
2026-05-07 12:27 50.04197 8.55763 355 ft 28 kts 70°
2026-05-07 12:27 50.04261 8.56030 358 ft 25 kts 69°
2026-05-07 12:28 50.04319 8.56271 362 ft 20 kts 70°
2026-05-07 12:28 50.04364 8.56464 359 ft 18 kts 70°
2026-05-07 12:28 50.04399 8.56608 364 ft 10 kts 69°
2026-05-07 12:28 50.04423 8.56706 359 ft 9 kts 70°
2026-05-07 12:29 50.04431 8.56740 362 ft 0 kts 70°
2026-05-07 12:30 50.04431 8.56742 362 ft 2 kts 70°
2026-05-07 12:30 50.04463 8.56844 359 ft 15 kts 44°
2026-05-07 12:31 50.04556 8.56892 359 ft 14 kts 13°
2026-05-07 12:31 50.04653 8.56933 360 ft 14 kts 22°
2026-05-07 12:31 50.04740 8.56996 360 ft 13 kts 25°
2026-05-07 12:31 50.04820 8.57051 356 ft 12 kts 24°
2026-05-07 12:32 50.04861 8.57070 358 ft 3 kts 340°
2026-05-07 12:32 50.04878 8.57050 358 ft 4 kts 308°
2026-05-07 12:32 50.04892 8.57005 357 ft 4 kts 295°
2026-05-07 12:32 50.04895 8.56994 363 ft 0 kts 295°